Weather History for Galveston, TX

Change the Weather History Date:

Wednesday, May 2, 2012

  Actual Average Record
Temperature  
Mean Temperature 79 °F 74 °F  
Max Temperature 83 °F 80 °F 87 °F (1900)
Min Temperature 75 °F 69 °F 53 °F (1929)
Degree Days  
Heating Degree Days 0 0  
Month to date heating degree days 0 0  
Since 1 July heating degree days 630 1009  
Cooling Degree Days 14 9  
Month to date cooling degree days 28 18  
Year to date cooling degree days 582 261  
Growing Degree Days 28 (Base 50)    
Moisture  
Dew Point 72 °F    
Average Humidity 79    
Maximum Humidity 88    
Minimum Humidity 69    
Precipitation  
Precipitation 0.00 in 0.12 in 2.02 in (1966)
Month to date precipitation 0.00 0.25  
Year to date precipitation 17.28 13.23  
Snow  
Snow 0.00 in - - ()
Month to date snowfall 0.0  
Since 1 July snowfall 0.0  
Snow Depth 0.00 in    
Sea Level Pressure  
Sea Level Pressure 29.90 in    
Wind  
Wind Speed 9 mph (SSE)    
Max Wind Speed 14 mph    
Max Gust Speed 17 mph    
Visibility 10 miles    
Events      
T = Trace of Precipitation, MM = Missing Value Source: NWS Daily Summary

Daily Weather History Graph

Daily Weather History Graph

Search for Another Location

Airport:

Trip Planner

Search our weather history database for the weather conditions in past years. The results will help you decide how hot, cold, wet, or windy it might be!

Date:

Astronomy

May. 02, 2012 Rise Set
Actual Time 6:36 AM CDT 7:56 PM CDT
Civil Twilight 6:11 AM CDT 8:21 PM CDT
Nautical Twilight 5:41 AM CDT 8:52 PM CDT
Astronomical Twilight 5:10 AM CDT 9:23 PM CDT
Moon 4:25 PM CDT (5/2) 3:48 AM CDT (5/2)
Length of Visible Light 14h 10m
Length of Day
13h 20m
Waxing Gibbous, 83% of the Moon is Illuminated
May 2
Waxing Gibbous
May 5
Full
May 12
Last Quarter
May 20
New
May 28
First Quarter

Hourly Weather History & Observations

Time (CDT) Temp. Heat Index Dew Point Humidity Pressure Visibility Wind Dir Wind Speed Gust Speed Precip Events Conditions
12:10 AM 75.2 °F - 71.6 °F 89% 29.92 in 10.0 mi SE 12.7 mph - N/A   Mostly Cloudy
12:20 AM 75.2 °F - 71.6 °F 89% 29.92 in 10.0 mi SE 10.4 mph - N/A   Scattered Clouds
12:52 AM 75.9 °F - 72.0 °F 87% 29.92 in 10.0 mi SE 10.4 mph - N/A   Scattered Clouds
1:52 AM 75.9 °F - 72.0 °F 87% 29.90 in 10.0 mi SE 11.5 mph - N/A   Scattered Clouds
2:23 AM 75.2 °F - 71.6 °F 89% 29.89 in 10.0 mi SE 13.8 mph - N/A   Mostly Cloudy
2:50 AM 75.2 °F - 71.6 °F 89% 29.88 in 10.0 mi SE 11.5 mph - N/A   Scattered Clouds
2:52 AM 75.9 °F - 72.0 °F 87% 29.88 in 10.0 mi SE 11.5 mph - N/A   Scattered Clouds
3:02 AM 75.2 °F - 71.6 °F 89% 29.88 in 10.0 mi SE 10.4 mph - N/A   Mostly Cloudy
3:09 AM 75.2 °F - 71.6 °F 89% 29.88 in 10.0 mi SE 10.4 mph - N/A   Scattered Clouds
3:48 AM 75.2 °F - 71.6 °F 89% 29.87 in 10.0 mi SE 8.1 mph - N/A   Mostly Cloudy
3:52 AM 75.0 °F - 71.1 °F 87% 29.88 in 10.0 mi SSE 11.5 mph - N/A   Mostly Cloudy
4:24 AM 75.2 °F - 71.6 °F 89% 29.88 in 10.0 mi SSE 10.4 mph - N/A   Mostly Cloudy
4:32 AM 75.2 °F - 71.6 °F 89% 29.88 in 10.0 mi SSE 9.2 mph - N/A   Scattered Clouds
4:52 AM 75.0 °F - 72.0 °F 90% 29.88 in 10.0 mi SSE 10.4 mph - N/A   Mostly Cloudy
5:09 AM 75.2 °F - 71.6 °F 89% 29.87 in 10.0 mi South 8.1 mph - N/A   Mostly Cloudy
5:29 AM 75.2 °F - 71.6 °F 89% 29.87 in 10.0 mi SSE 9.2 mph - N/A   Mostly Cloudy
5:39 AM 75.2 °F - 71.6 °F 89% 29.88 in 10.0 mi SSE 8.1 mph - N/A   Scattered Clouds
5:52 AM 75.0 °F - 72.0 °F 90% 29.88 in 10.0 mi SSE 9.2 mph - N/A   Mostly Cloudy
6:52 AM 75.9 °F - 72.0 °F 87% 29.89 in 10.0 mi SSE 5.8 mph - N/A   Mostly Cloudy
7:11 AM 75.2 °F - 71.6 °F 89% 29.90 in 10.0 mi South 5.8 mph - N/A   Scattered Clouds
7:52 AM 77.0 °F - 72.0 °F 84% 29.91 in 10.0 mi SSE 5.8 mph - N/A   Scattered Clouds
8:52 AM 79.0 °F - 73.0 °F 82% 29.92 in 10.0 mi SE 5.8 mph - N/A   Mostly Cloudy
9:10 AM 78.8 °F - 71.6 °F 78% 29.93 in 10.0 mi SE 6.9 mph - N/A   Mostly Cloudy
9:37 AM 78.8 °F - 71.6 °F 78% 29.93 in 10.0 mi SE 6.9 mph - N/A   Scattered Clouds
9:52 AM 79.0 °F - 71.1 °F 77% 29.94 in 10.0 mi Variable 5.8 mph - N/A   Scattered Clouds
10:52 AM 81.0 °F 85.2 °F 72.0 °F 74% 29.94 in 10.0 mi SSE 8.1 mph - N/A   Scattered Clouds
11:52 AM 82.0 °F 87.4 °F 73.0 °F 74% 29.94 in 10.0 mi SSE 8.1 mph - N/A   Partly Cloudy
12:52 PM 82.0 °F 86.7 °F 72.0 °F 71% 29.93 in 10.0 mi South 9.2 mph - N/A   Partly Cloudy
1:52 PM 82.0 °F 86.7 °F 72.0 °F 71% 29.92 in 10.0 mi South 6.9 mph - N/A   Partly Cloudy
2:52 PM 82.0 °F 86.7 °F 72.0 °F 71% 29.90 in 10.0 mi SSE 11.5 mph - N/A   Clear
3:52 PM 82.9 °F 88.0 °F 72.0 °F 69% 29.89 in 10.0 mi SSE 11.5 mph - N/A   Clear
4:52 PM 82.0 °F 86.7 °F 72.0 °F 71% 29.87 in 10.0 mi South 10.4 mph - N/A   Clear
5:52 PM 81.0 °F 85.2 °F 72.0 °F 74% 29.86 in 10.0 mi South 12.7 mph - N/A   Clear
6:52 PM 80.1 °F 83.8 °F 72.0 °F 76% 29.87 in 10.0 mi South 11.5 mph - N/A   Clear
7:52 PM 78.1 °F - 72.0 °F 81% 29.88 in 10.0 mi South 10.4 mph - N/A   Clear
8:52 PM 78.1 °F - 72.0 °F 81% 29.90 in 10.0 mi South 11.5 mph - N/A   Clear
9:52 PM 78.1 °F - 73.0 °F 84% 29.92 in 10.0 mi South 9.2 mph - N/A   Clear
10:52 PM 77.0 °F - 73.0 °F 88% 29.94 in 10.0 mi SSE 10.4 mph - N/A   Mostly Cloudy
11:01 PM 77.0 °F - 73.4 °F 89% 29.94 in 10.0 mi South 11.5 mph - N/A   Scattered Clouds
11:52 PM 77.0 °F - 73.0 °F 88% 29.94 in 10.0 mi South 8.1 mph - N/A   Mostly Cloudy